| time (UTC) | temp F | wind direction | speed knots | gust knots | rain 1hr in | rain 24hr in | rain mn in | humidity % | barometer mb |
| 20260505124713 | 44 | 330 | 9.6 | 16.5 | 0.00 | 0.05 | 0.04 | 56 | 999.1 |
| 20260505122713 | 47 | 280 | 8.7 | 14.8 | 0.00 | 0.05 | 0.04 | 46 | 998.5 |
| 20260505120713 | 46 | 264 | 9.6 | 25.2 | 0.00 | 0.05 | 0.04 | 49 | 998.8 |
| 20260505114713 | 47 | 275 | 8.7 | 16.5 | 0.00 | 0.05 | 0.04 | 43 | 998.1 |
| 20260505112713 | 47 | 293 | 8.7 | 18.2 | 0.00 | 0.05 | 0.04 | 44 | 997.7 |
| 20260505110713 | 47 | 285 | 8.7 | 17.4 | 0.00 | 0.05 | 0.04 | 45 | 997.5 |
| 20260505100713 | 44 | 263 | 7.8 | 17.4 | 0.00 | 0.05 | 0.04 | 65 | 997.0 |
| 20260505094713 | 44 | 227 | 7.8 | 13.0 | 0.00 | 0.05 | 0.04 | 71 | 997.0 |
| 20260505092713 | 43 | 233 | 6.1 | 11.3 | 0.00 | 0.05 | 0.04 | 74 | 997.1 |
| 20260505090713 | 42 | 239 | 7.8 | 13.0 | 0.00 | 0.05 | 0.04 | 79 | 997.1 |
| 20260505084713 | 40 | 242 | 6.1 | 10.4 | 0.03 | 0.05 | 0.04 | 81 | 997.0 |
| 20260505082712 | 39 | 234 | 6.1 | 12.2 | 0.03 | 0.05 | 0.04 | 85 | 997.2 |
| 20260505080712 | 38 | 196 | 5.2 | 10.4 | 0.03 | 0.05 | 0.04 | 88 | 997.0 |
| 20260505074712 | 37 | 235 | 6.1 | 9.6 | 0.01 | 0.02 | 0.01 | 89 | 997.5 |
| 20260505072712 | 37 | 286 | 6.1 | 12.2 | 0.01 | 0.02 | 0.01 | 87 | 997.5 |
| 20260505070712 | 39 | 319 | 7.8 | 15.6 | 0.01 | 0.02 | 0.01 | 82 | 997.3 |
| 20260505064712 | 40 | 303 | 7.0 | 10.4 | 0.00 | 0.01 | 0.00 | 79 | 997.1 |
| 20260505062712 | 42 | 293 | 4.3 | 9.6 | 0.00 | 0.01 | 0.00 | 68 | 996.9 |
| 20260505060712 | 43 | 269 | 5.2 | 11.3 | 0.00 | 0.01 | 0.00 | 67 | 996.8 |
| 20260505054712 | 43 | 254 | 5.2 | 10.4 | 0.00 | 0.01 | 0.00 | 68 | 996.8 |
| 20260505052712 | 43 | 240 | 5.2 | 10.4 | 0.00 | 0.01 | 0.00 | 68 | 996.9 |
| 20260505050712 | 43 | 263 | 4.3 | 8.7 | 0.00 | 0.01 | 0.00 | 70 | 996.6 |
| 20260505040712 | 42 | 252 | 5.2 | 9.6 | 0.00 | 0.01 | 0.00 | 75 | 997.0 |
| 20260505034712 | 41 | 274 | 4.3 | 9.6 | 0.00 | 0.01 | 0.00 | 73 | 997.1 |
| 20260505032712 | 41 | 316 | 4.3 | 7.8 | 0.00 | 0.01 | 0.00 | 74 | 996.6 |
| 20260505030712 | 41 | 296 | 6.1 | 12.2 | 0.00 | 0.01 | 0.00 | 73 | 997.1 |
| 20260505024711 | 41 | 276 | 6.1 | 12.2 | 0.00 | 0.01 | 0.00 | 74 | 997.5 |
| 20260505022711 | 42 | 281 | 6.1 | 10.4 | 0.00 | 0.01 | 0.00 | 75 | 997.0 |
| 20260505020711 | 42 | 280 | 5.2 | 9.6 | 0.00 | 0.01 | 0.00 | 75 | 996.6 |
| 20260505014711 | 43 | 274 | 6.1 | 13.9 | 0.00 | 0.01 | 0.00 | 73 | 996.5 |
| 20260505012711 | 44 | 280 | 7.0 | 13.9 | 0.00 | 0.01 | 0.00 | 71 | 996.4 |
| 20260505010711 | 44 | 249 | 3.5 | 7.8 | 0.00 | 0.01 | 0.00 | 72 | 996.4 |
| 20260505004711 | 44 | 258 | 4.3 | 11.3 | 0.00 | 0.01 | 0.00 | 72 | 996.3 |
| 20260505002711 | 44 | 237 | 4.3 | 7.0 | 0.00 | 0.01 | 0.00 | 71 | 996.3 |
| 20260505000711 | 44 | 258 | 4.3 | 9.6 | 0.00 | 0.01 | 0.00 | 72 | 996.3 |
| 20260504234711 | 44 | 255 | 5.2 | 10.4 | 0.00 | 0.01 | 0.00 | 72 | 996.3 |
| 20260504232711 | 45 | 259 | 7.0 | 12.2 | 0.00 | 0.01 | 0.00 | 71 | 996.3 |
| 20260504230711 | 45 | 256 | 6.1 | 13.9 | 0.00 | 0.01 | 0.00 | 69 | 996.3 |
| 20260504224711 | 46 | 239 | 6.1 | 13.9 | 0.00 | 0.01 | 0.00 | 66 | 996.2 |
| 20260504222710 | 47 | 251 | 6.1 | 11.3 | 0.00 | 0.01 | 0.00 | 63 | 996.1 |
| 20260504220711 | 47 | 248 | 6.1 | 11.3 | 0.00 | 0.01 | 0.00 | 63 | 996.2 |
| 20260504214710 | 48 | 256 | 6.1 | 15.6 | 0.00 | 0.01 | 0.00 | 61 | 996.1 |
| 20260504212710 | 48 | 232 | 7.8 | 12.2 | 0.00 | 0.01 | 0.00 | 60 | 995.9 |
| 20260504210710 | 48 | 234 | 8.7 | 14.8 | 0.00 | 0.01 | 0.00 | 60 | 995.8 |
| 20260504204710 | 48 | 227 | 7.8 | 13.9 | 0.00 | 0.01 | 0.01 | 62 | 996.0 |
| 20260504202710 | 48 | 223 | 7.0 | 13.0 | 0.00 | 0.01 | 0.01 | 63 | 995.9 |
| 20260504200710 | 48 | 216 | 4.3 | 9.6 | 0.00 | 0.01 | 0.01 | 67 | 995.9 |
| 20260504194710 | 48 | 205 | 3.5 | 7.0 | 0.00 | 0.01 | 0.01 | 72 | 996.0 |
| 20260504192710 | 48 | 188 | 3.5 | 5.2 | 0.00 | 0.01 | 0.01 | 77 | 995.9 |
| 20260504190710 | 48 | 192 | 3.5 | 6.1 | 0.00 | 0.01 | 0.01 | 78 | 996.2 |
| 20260504184710 | 48 | 207 | 2.6 | 4.3 | 0.00 | 0.01 | 0.01 | 85 | 996.4 |
| 20260504182710 | 49 | 165 | 3.5 | 5.2 | 0.00 | 0.01 | 0.01 | 83 | 996.4 |
| 20260504180710 | 50 | 154 | 3.5 | 6.1 | 0.00 | 0.01 | 0.01 | 80 | 996.3 |
| 20260504174709 | 51 | 150 | 4.3 | 8.7 | 0.00 | 0.01 | 0.01 | 79 | 996.4 |
| 20260504172709 | 51 | 152 | 3.5 | 6.1 | 0.00 | 0.01 | 0.01 | 80 | 996.5 |
| 20260504170709 | 52 | 154 | 4.3 | 8.7 | 0.00 | 0.01 | 0.01 | 78 | 996.6 |
| 20260504150709 | 53 | 138 | 4.3 | 9.6 | 0.00 | 0.01 | 0.01 | 74 | 997.7 |
| 20260504140709 | 52 | 176 | 3.5 | 7.8 | 0.00 | 0.01 | 0.01 | 78 | 998.5 |